Tracking 22456 objects as of 7-Mar-2021
HD Live streaming from Space Station
objects crossing your sky now

SL-14 R/B

Track SL-14 R/B now!
10-day predictions


NORAD ID: 19337
Int'l Code: 1988-064B
Perigee: 1,190.2 km
Apogee: 1,214.7 km
Inclination: 82.5 °
Period: 109.3 minutes
Semi major axis: 7573 km
RCS: 5.3254 m2 (large)
Launch date: July 26, 1988
Source: Commonwealth of Independent States (former USSR) (CIS)
Launch site: PLESETSK MISSILE AND SPACE COMPLEX (PKMTR)

Note: This is a ROCKET BODY
aabbcc
Your satellite tracking list
Your tracking list is empty




NASA's NSSDC Master Catalog

Two Line Element Set (TLE):
1 19337U 88064B   21065.83352295  .00000158  00000-0  37615-3 0  9999
2 19337  82.5428 258.4407 0016136  24.1847 348.0516 13.17231548568109
Source of the keplerian elements: AFSPC